GW1230 Weather Reports


Display with metric or nautical units.
time (UTC)temp
F
wind
direction
speed
MPH
gust
MPH
rain 1hr
in
rain 24hr
in
rain mn
in
humidity
%
barometer
mb
20260507070324 53 204 3.0 3.0 0.00 0.00 0.00 92 1020.6
20260507065820 53 243 1.0 2.0 0.00 0.00 0.00 92 1020.6
20260507065317 53 188 8.0 10.0 0.00 0.00 0.00 91 1020.9
20260507064814 53 176 4.0 5.0 0.00 0.00 0.00 91 1020.7
20260507064313 53 201 4.0 6.0 0.00 0.00 0.00 91 1020.6
20260507063810 53 196 6.0 7.0 0.00 0.00 0.00 91 1020.6
20260507063307 53 213 1.0 2.0 0.00 0.00 0.00 91 1020.6
20260507062804 53 196 2.0 3.0 0.00 0.00 0.00 91 1020.6
20260507062301 53 202 7.0 7.0 0.00 0.00 0.00 91 1020.6
20260507061759 53 200 2.0 3.0 0.00 0.00 0.00 91 1020.7
20260507061256 53 194 3.0 3.0 0.00 0.00 0.00 91 1020.8
20260507060754 53 215 5.0 7.0 0.00 0.00 0.00 90 1020.6
20260507060251 53 217 3.0 3.0 0.00 0.00 0.00 90 1020.8
20260507055747 53 171 5.0 6.0 0.00 0.00 0.00 90 1020.8
20260507055243 53 201 7.0 7.0 0.00 0.00 0.00 90 1020.6
20260507054739 53 208 3.0 5.0 0.00 0.00 0.00 90 1020.8
20260507054236 53 201 5.0 5.0 0.00 0.00 0.00 90 1020.7
20260507053733 54 190 4.0 6.0 0.00 0.00 0.00 90 1020.8
20260507053231 54 206 2.0 2.0 0.00 0.00 0.00 89 1020.9
20260507052730 54 226 1.0 1.0 0.00 0.00 0.00 89 1020.7
20260507052225 54 212 1.0 2.0 0.00 0.00 0.00 89 1020.7
20260507051724 54 200 4.0 5.0 0.00 0.00 0.00 89 1020.8
20260507051220 54 238 3.0 5.0 0.00 0.00 0.00 89 1020.7
20260507050717 54 204 4.0 5.0 0.00 0.00 0.00 88 1020.7
20260507050214 54 198 4.0 5.0 0.00 0.00 0.00 88 1020.9
20260507045711 55 207 2.0 2.0 0.00 0.00 0.00 87 1020.9
20260507045207 55 180 5.0 7.0 0.00 0.00 0.00 87 1020.8
20260507044704 55 195 1.0 3.0 0.00 0.00 0.00 87 1020.8
20260507044201 55 214 1.0 1.0 0.00 0.00 0.00 87 1020.9
20260507043657 55 214 3.0 3.0 0.00 0.00 0.00 86 1020.9
20260507043154 55 199 7.0 8.0 0.00 0.00 0.00 86 1020.8
20260507042650 55 246 1.0 1.0 0.00 0.00 0.00 86 1020.8
20260507042145 55 221 4.0 5.0 0.00 0.00 0.00 86 1020.9
20260507041643 55 219 3.0 3.0 0.00 0.00 0.00 86 1020.6
20260507041139 55 216 4.0 5.0 0.00 0.00 0.00 86 1020.7
20260507040636 55 200 4.0 5.0 0.00 0.00 0.00 85 1020.5
20260507040132 55 178 4.0 6.0 0.00 0.00 0.00 85 1020.8
20260507035628 55 201 4.0 5.0 0.00 0.00 0.00 85 1020.6
20260507035124 55 203 1.0 2.0 0.00 0.00 0.00 85 1020.5
20260507034621 55 190 3.0 3.0 0.00 0.00 0.00 84 1020.5
20260507034119 56 200 2.0 2.0 0.00 0.00 0.00 84 1020.5
20260507033617 56 260 3.0 3.0 0.00 0.00 0.00 84 1020.5
20260507033114 56 196 4.0 5.0 0.00 0.00 0.00 83 1020.4
20260507032611 56 285 3.0 3.0 0.00 0.00 0.00 83 1020.4
20260507032107 56 250 0.0 0.0 0.00 0.00 0.00 83 1020.3
20260507031604 56 246 1.0 2.0 0.00 0.00 0.00 82 1020.2
20260507031101 56 259 1.0 1.0 0.00 0.00 0.00 82 1020.4
20260507030557 56 214 3.0 5.0 0.00 0.00 0.00 82 1020.4
20260507030056 56 252 3.0 3.0 0.00 0.00 0.00 82 1020.3
20260507025552 56 228 2.0 2.0 0.00 0.00 0.00 82 1020.3
20260507025049 56 212 3.0 5.0 0.00 0.00 0.00 82 1020.3
20260507024547 56 179 2.0 5.0 0.00 0.00 0.00 82 1020.2
20260507024044 56 231 3.0 6.0 0.00 0.00 0.00 82 1020.2
20260507023539 56 268 1.0 1.0 0.00 0.00 0.00 82 1020.3
20260507023038 57 276 3.0 5.0 0.00 0.00 0.00 81 1020.0
20260507022534 57 227 0.0 1.0 0.00 0.00 0.00 81 1019.9
20260507022029 57 209 2.0 3.0 0.00 0.00 0.00 81 1020.1
20260507021525 57 210 0.0 0.0 0.00 0.00 0.00 81 1020.1
20260507021022 57 216 5.0 7.0 0.00 0.00 0.00 81 1020.0
20260507020520 57 231 2.0 2.0 0.00 0.00 0.00 81 1019.8
20260507020016 57 206 4.0 5.0 0.00 0.00 0.00 81 1019.9
20260507015515 57 230 3.0 5.0 0.00 0.00 0.00 81 1019.9
20260507015012 57 234 1.0 1.0 0.00 0.00 0.00 81 1020.2
20260507014508 57 243 3.0 3.0 0.00 0.00 0.00 81 1020.1
20260507014004 56 254 1.0 2.0 0.00 0.00 0.00 82 1020.2
20260507013501 57 227 4.0 6.0 0.00 0.00 0.00 82 1020.2
20260507012958 57 212 8.0 10.0 0.00 0.00 0.00 81 1020.1
20260507012455 57 272 2.0 3.0 0.00 0.00 0.00 81 1020.2
20260507011951 57 223 3.0 3.0 0.00 0.00 0.00 82 1020.0
20260507011448 57 175 4.0 6.0 0.00 0.00 0.00 82 1020.1
20260507010944 57 191 5.0 6.0 0.00 0.00 0.00 81 1020.0
20260507010439 57 189 6.0 8.0 0.00 0.00 0.00 81 1020.2
20260507005936 57 212 3.0 3.0 0.00 0.00 0.00 81 1020.1
20260507005433 57 214 5.0 6.0 0.00 0.00 0.00 81 1020.2
20260507004930 57 203 5.0 7.0 0.00 0.00 0.00 81 1020.1
20260507004427 57 155 1.0 3.0 0.00 0.00 0.00 81 1020.2
20260507003924 57 221 5.0 8.0 0.00 0.00 0.00 81 1020.1
20260507003419 57 190 6.0 8.0 0.00 0.00 0.00 81 1020.4
20260507002914 57 199 3.0 3.0 0.00 0.00 0.00 81 1020.3
20260507002411 57 245 4.0 6.0 0.00 0.00 0.00 81 1020.1
20260507001908 57 200 7.0 8.0 0.00 0.00 0.00 81 1020.2
20260507001405 57 197 4.0 6.0 0.00 0.00 0.00 81 1020.2
20260507000902 57 203 4.0 5.0 0.00 0.00 0.00 80 1020.2
20260507000358 57 201 3.0 5.0 0.00 0.00 0.00 81 1020.2
20260506235853 57 228 3.0 5.0 0.00 0.00 0.00 81 1020.0
20260506235351 57 205 4.0 6.0 0.00 0.00 0.00 80 1020.2
20260506234846 57 272 2.0 2.0 0.00 0.00 0.00 80 1020.1
20260506234344 56 205 9.0 9.0 0.00 0.00 0.00 80 1020.2
20260506233842 56 198 8.0 9.0 0.00 0.00 0.00 81 1020.5
20260506233337 56 205 5.0 7.0 0.00 0.00 0.00 81 1020.4
20260506232834 56 210 3.0 5.0 0.00 0.00 0.00 80 1020.4
20260506232330 56 252 3.0 6.0 0.00 0.00 0.00 80 1020.4
20260506231827 56 190 5.0 7.0 0.00 0.00 0.00 80 1020.5
20260506231325 56 188 5.0 6.0 0.00 0.00 0.00 80 1020.4
20260506230822 56 199 9.0 11.0 0.00 0.00 0.00 80 1020.4
20260506230318 56 214 1.0 2.0 0.00 0.00 0.00 81 1020.4
20260506225814 56 181 5.0 7.0 0.00 0.00 0.00 80 1020.5
20260506225312 57 271 3.0 5.0 0.00 0.00 0.00 80 1020.6
20260506224809 57 197 7.0 8.0 0.00 0.00 0.00 80 1020.3
20260506224306 57 187 9.0 13.0 0.00 0.00 0.00 80 1020.4
20260506223802 56 257 3.0 8.0 0.00 0.00 0.00 80 1020.3
20260506223257 57 201 7.0 13.0 0.00 0.00 0.00 78 1020.4
20260506222754 57 264 4.0 5.0 0.00 0.00 0.00 79 1020.5
20260506222249 56 236 9.0 10.0 0.00 0.00 0.00 78 1020.4
20260506221743 57 221 6.0 8.0 0.00 0.00 0.00 78 1020.6
20260506221240 57 238 5.0 6.0 0.00 0.00 0.00 77 1020.5
20260506220737 58 288 3.0 3.0 0.00 0.00 0.00 77 1020.2
20260506220232 57 204 7.0 8.0 0.00 0.00 0.00 76 1020.5
20260506215729 58 163 6.0 8.0 0.00 0.00 0.00 76 1020.6
20260506215225 57 204 7.0 9.0 0.00 0.00 0.00 76 1020.6
20260506214721 58 257 6.0 8.0 0.00 0.00 0.00 75 1020.4
20260506214219 58 210 7.0 8.0 0.00 0.00 0.00 75 1020.5
20260506213717 57 224 5.0 8.0 0.00 0.00 0.00 76 1020.7
20260506213214 57 196 10.0 11.0 0.00 0.00 0.00 77 1020.5
20260506212711 57 199 5.0 7.0 0.00 0.00 0.00 76 1020.7
20260506212206 57 203 6.0 7.0 0.00 0.00 0.00 76 1020.6
20260506211702 58 192 3.0 5.0 0.00 0.00 0.00 76 1020.7
20260506211158 58 196 3.0 6.0 0.00 0.00 0.00 76 1020.6
20260506210655 57 246 4.0 5.0 0.00 0.00 0.00 76 1020.7
20260506210152 58 236 6.0 7.0 0.00 0.00 0.00 76 1020.5
20260506205649 57 284 5.0 7.0 0.00 0.00 0.00 77 1020.4
20260506205144 57 224 5.0 8.0 0.00 0.00 0.00 77 1020.6
20260506204642 57 258 10.0 10.0 0.00 0.00 0.00 76 1020.5
20260506204139 58 259 4.0 5.0 0.00 0.00 0.00 76 1020.5
20260506203637 58 275 3.0 3.0 0.00 0.00 0.00 76 1020.4
20260506203134 57 238 3.0 6.0 0.00 0.00 0.00 77 1020.6
20260506202632 57 197 7.0 9.0 0.00 0.00 0.00 78 1020.4
20260506202127 57 255 4.0 7.0 0.00 0.00 0.00 77 1020.7
20260506201625 57 220 4.0 5.0 0.00 0.00 0.00 77 1020.3
20260506201121 57 231 10.0 13.0 0.00 0.00 0.00 77 1020.6
20260506200618 57 202 6.0 6.0 0.00 0.00 0.00 78 1020.4
20260506200115 57 199 6.0 8.0 0.00 0.00 0.00 78 1020.4
20260506195611 56 190 11.0 13.0 0.00 0.00 0.00 79 1020.6
20260506195108 57 169 9.0 11.0 0.00 0.00 0.00 79 1020.4
20260506194605 56 190 5.0 7.0 0.00 0.00 0.00 80 1020.2
20260506194101 56 194 7.0 8.0 0.00 0.00 0.00 80 1020.2
20260506193559 56 267 4.0 5.0 0.00 0.00 0.00 80 1020.4
20260506193056 56 184 3.0 5.0 0.00 0.00 0.00 82 1020.5
20260506192553 56 217 5.0 6.0 0.00 0.00 0.00 81 1020.2
20260506192049 56 148 5.0 7.0 0.00 0.00 0.00 82 1020.5
20260506191546 55 176 3.0 3.0 0.00 0.00 0.00 83 1020.3
20260506191042 55 176 6.0 7.0 0.00 0.00 0.00 83 1020.3
20260506190539 56 208 5.0 7.0 0.00 0.00 0.00 82 1020.3
20260506190036 56 230 3.0 3.0 0.00 0.00 0.00 83 1020.1
20260506185533 55 240 1.0 2.0 0.00 0.00 0.00 84 1020.1
20260506185030 55 203 3.0 3.0 0.00 0.00 0.00 84 1020.1
20260506184527 55 190 9.0 10.0 0.00 0.00 0.00 84 1020.1
20260506184024 55 186 4.0 5.0 0.00 0.00 0.00 85 1020.2
20260506183520 54 189 10.0 11.0 0.00 0.00 0.00 85 1020.6
20260506183017 54 224 6.0 7.0 0.00 0.00 0.00 86 1020.4
20260506182515 54 231 6.0 8.0 0.00 0.00 0.00 87 1020.3
20260506182011 54 221 4.0 5.0 0.00 0.00 0.00 88 1020.4
20260506181509 53 165 3.0 3.0 0.00 0.00 0.00 89 1020.2
20260506181006 53 240 4.0 6.0 0.00 0.00 0.00 90 1020.3
20260506180503 54 259 2.0 3.0 0.00 0.00 0.00 91 1020.4
20260506175959 54 260 3.0 5.0 0.00 0.00 0.00 90 1020.1
20260506175455 54 159 4.0 6.0 0.00 0.00 0.00 90 1019.9
20260506174952 54 202 5.0 6.0 0.00 0.00 0.00 90 1019.8
20260506174451 54 203 6.0 8.0 0.00 0.00 0.00 90 1019.9
20260506173946 54 200 3.0 5.0 0.00 0.00 0.00 91 1019.9
20260506173444 54 163 7.0 8.0 0.00 0.00 0.00 91 1019.9
20260506172941 54 188 3.0 3.0 0.00 0.00 0.00 92 1020.2
20260506172438 53 202 2.0 3.0 0.00 0.00 0.00 93 1020.2
20260506171934 53 182 5.0 6.0 0.00 0.00 0.00 93 1020.2
20260506171432 53 192 5.0 7.0 0.00 0.00 0.00 93 1020.0
20260506170929 53 200 5.0 6.0 0.00 0.00 0.00 93 1020.2
20260506170425 53 199 4.0 5.0 0.00 0.00 0.00 93 1020.4
20260506165919 53 222 3.0 5.0 0.00 0.00 0.00 93 1020.2
20260506165416 53 210 3.0 5.0 0.00 0.00 0.00 93 1020.1
20260506164907 53 198 8.0 10.0 0.00 0.00 0.00 92 1020.1
20260506164403 53 189 2.0 2.0 0.00 0.00 0.00 92 1020.0
20260506163901 53 216 2.0 3.0 0.00 0.00 0.00 92 1020.1
20260506163356 53 250 3.0 5.0 0.00 0.00 0.00 92 1019.9
20260506162851 53 211 3.0 3.0 0.00 0.00 0.00 92 1019.9
20260506162349 53 202 9.0 10.0 0.00 0.00 0.00 91 1019.9
20260506161846 54 261 4.0 6.0 0.00 0.00 0.00 92 1019.7
20260506161344 53 205 1.0 2.0 0.00 0.00 0.00 92 1019.5
20260506160842 53 190 7.0 8.0 0.00 0.00 0.00 93 1019.5
20260506160338 53 169 5.0 6.0 0.00 0.00 0.00 94 1019.4
20260506155836 52 193 9.0 10.0 0.00 0.00 0.00 94 1019.4
20260506155332 52 187 6.0 8.0 0.00 0.00 0.00 95 1019.5
20260506153445 52 187 10.0 13.0 0.00 0.00 0.00 97 1019.6
20260506152942 52 188 4.0 5.0 0.00 0.00 0.00 97 1019.8
20260506152439 52 242 2.0 3.0 0.00 0.00 0.00 97 1019.9
20260506151938 52 268 4.0 6.0 0.00 0.00 0.00 97 1019.9
20260506151434 52 195 3.0 5.0 0.00 0.00 0.00 97 1019.7
20260506150932 52 265 0.0 0.0 0.00 0.00 0.00 97 1019.7
20260506150428 52 268 3.0 3.0 0.00 0.00 0.00 96 1019.5
20260506145925 52 193 3.0 5.0 0.00 0.00 0.00 96 1019.5
20260506145421 52 193 4.0 6.0 0.00 0.00 0.00 96 1019.1
20260506144919 52 194 6.0 7.0 0.00 0.00 0.00 96 1019.2
20260506144415 52 213 0.0 1.0 0.00 0.00 0.00 96 1019.3
20260506143914 52 177 5.0 6.0 0.00 0.00 0.00 96 1019.5
20260506143410 52 230 2.0 3.0 0.00 0.00 0.00 96 1019.6
20260506142909 52 219 3.0 3.0 0.00 0.00 0.00 95 1019.6
20260506142406 52 242 5.0 6.0 0.00 0.00 0.00 95 1019.6
20260506141904 52 232 1.0 2.0 0.00 0.00 0.00 95 1019.4
20260506141402 52 228 1.0 2.0 0.00 0.00 0.00 95 1019.7
20260506140900 52 222 1.0 2.0 0.00 0.00 0.00 95 1019.2
20260506140356 52 186 3.0 6.0 0.00 0.00 0.00 94 1019.0
20260506135854 52 193 5.0 6.0 0.00 0.00 0.00 94 1019.4
20260506135350 52 227 3.0 3.0 0.00 0.00 0.00 94 1019.2
20260506134847 52 192 2.0 2.0 0.00 0.00 0.00 94 1019.2
20260506134343 52 258 1.0 1.0 0.00 0.00 0.00 94 1019.4
20260506133840 52 240 2.0 2.0 0.00 0.00 0.00 93 1019.3
20260506133337 52 201 4.0 5.0 0.00 0.00 0.00 93 1019.1
20260506132833 53 209 2.0 3.0 0.00 0.00 0.00 93 1019.1
20260506132331 53 262 2.0 2.0 0.00 0.00 0.00 93 1019.1
20260506131829 53 230 4.0 5.0 0.00 0.00 0.00 93 1019.1
20260506131325 53 283 1.0 1.0 0.00 0.00 0.00 93 1019.0
20260506130822 53 265 5.0 6.0 0.00 0.00 0.00 93 1018.9
20260506130318 53 216 3.0 6.0 0.00 0.00 0.00 92 1019.1
20260506125816 53 208 3.0 5.0 0.00 0.00 0.00 92 1018.7
20260506125314 53 207 4.0 5.0 0.00 0.00 0.00 92 1018.5
20260506124813 53 216 6.0 7.0 0.00 0.00 0.00 92 1018.6
20260506124309 53 221 1.0 2.0 0.00 0.00 0.00 92 1018.8
20260506123807 53 210 6.0 7.0 0.00 0.00 0.00 91 1018.6
20260506123306 53 202 7.0 8.0 0.00 0.00 0.00 91 1018.8
20260506122802 53 200 5.0 6.0 0.00 0.00 0.00 91 1018.6
20260506122259 53 218 2.0 2.0 0.00 0.00 0.00 91 1018.5
20260506121757 53 218 2.0 3.0 0.00 0.00 0.00 91 1018.5
20260506121254 53 212 4.0 5.0 0.00 0.00 0.00 91 1018.4
20260506120751 53 190 4.0 5.0 0.00 0.00 0.00 91 1018.6
20260506120249 53 161 3.0 3.0 0.00 0.00 0.00 91 1018.4
20260506115746 53 240 0.0 0.0 0.00 0.00 0.00 91 1018.5
20260506115244 53 178 6.0 7.0 0.00 0.00 0.00 91 1018.4
20260506114742 53 201 3.0 3.0 0.00 0.00 0.00 91 1018.3
20260506114239 53 217 3.0 3.0 0.00 0.00 0.00 91 1018.3
20260506113738 53 207 6.0 7.0 0.00 0.00 0.00 91 1018.2
20260506113235 53 191 5.0 6.0 0.00 0.00 0.00 91 1018.2
20260506112731 53 198 6.0 7.0 0.00 0.00 0.00 91 1018.1
20260506112229 53 203 4.0 5.0 0.00 0.00 0.00 91 1018.2
20260506111726 53 197 2.0 3.0 0.00 0.00 0.00 91 1018.0
20260506111224 53 205 5.0 7.0 0.00 0.00 0.00 91 1018.1
20260506110721 53 194 5.0 8.0 0.00 0.00 0.00 91 1017.9
20260506110218 53 226 0.0 1.0 0.00 0.00 0.00 92 1018.0
20260506105714 53 227 4.0 5.0 0.00 0.00 0.00 92 1018.1
20260506105211 53 237 2.0 2.0 0.00 0.00 0.00 92 1017.7
20260506104710 53 254 4.0 5.0 0.00 0.00 0.00 92 1017.8
20260506104207 52 273 2.0 2.0 0.00 0.00 0.00 92 1018.0
20260506103704 52 261 0.0 0.0 0.00 0.00 0.00 92 1017.8
20260506103201 52 278 0.0 1.0 0.00 0.00 0.00 92 1017.9
20260506102659 52 253 1.0 1.0 0.00 0.00 0.00 92 1018.0
20260506102156 52 254 2.0 2.0 0.00 0.00 0.00 92 1017.9
20260506101653 53 209 2.0 3.0 0.00 0.00 0.00 92 1017.9
20260506101150 53 212 3.0 5.0 0.00 0.00 0.00 91 1017.8
20260506100648 53 247 5.0 7.0 0.00 0.00 0.00 91 1017.7
20260506100146 53 266 5.0 7.0 0.00 0.00 0.00 91 1017.7
20260506095644 53 221 3.0 5.0 0.00 0.00 0.00 91 1017.8
20260506095140 53 252 4.0 6.0 0.00 0.00 0.00 91 1017.5
20260506094638 53 251 3.0 3.0 0.00 0.00 0.00 91 1017.4
20260506094136 53 203 1.0 2.0 0.00 0.00 0.00 91 1017.6
20260506093634 53 257 1.0 2.0 0.00 0.00 0.00 91 1017.4
20260506093131 53 253 0.0 0.0 0.00 0.00 0.00 91 1017.5
20260506092628 53 233 1.0 2.0 0.00 0.00 0.00 91 1017.5
20260506092125 53 258 0.0 0.0 0.00 0.00 0.00 91 1017.6
20260506091623 53 254 3.0 3.0 0.00 0.00 0.00 91 1017.3
20260506091121 53 249 0.0 0.0 0.00 0.00 0.00 90 1017.3
20260506090619 53 245 1.0 2.0 0.00 0.00 0.00 90 1017.2
20260506090114 53 264 0.0 1.0 0.00 0.00 0.00 90 1017.3
20260506085612 53 248 2.0 2.0 0.00 0.00 0.00 90 1017.2
20260506085108 54 274 1.0 1.0 0.00 0.00 0.00 89 1017.3
20260506084605 54 216 2.0 2.0 0.00 0.00 0.00 89 1017.0
20260506084101 54 252 2.0 2.0 0.00 0.00 0.00 89 1017.0
20260506083558 54 278 0.0 0.0 0.00 0.00 0.00 89 1017.0
20260506083055 54 247 1.0 2.0 0.00 0.00 0.00 89 1017.1
20260506082552 55 252 1.0 2.0 0.00 0.00 0.00 88 1016.9
20260506082048 55 214 2.0 2.0 0.00 0.00 0.00 88 1016.9
20260506081546 55 253 0.0 0.0 0.00 0.00 0.00 88 1016.7
20260506081043 55 227 2.0 3.0 0.00 0.00 0.00 88 1016.9
20260506080541 55 272 1.0 1.0 0.00 0.00 0.00 87 1016.7
20260506073525 56 196 4.0 5.0 0.00 0.00 0.00 87 1016.7
20260506073021 55 210 3.0 3.0 0.00 0.00 0.00 88 1016.8
20260506072519 55 199 4.0 5.0 0.00 0.00 0.00 88 1016.6
20260506072016 55 202 3.0 3.0 0.00 0.00 0.00 88 1016.5
20260506071514 56 266 2.0 3.0 0.00 0.00 0.00 87 1016.8
20260506071011 56 239 2.0 2.0 0.00 0.00 0.00 87 1016.5
20260506070508 56 235 1.0 2.0 0.00 0.00 0.00 87 1016.5